Weather History for KUNV - July, 2013

Change the Weather History Date:

Thursday, July 4, 2013

  Actual Average Record
Temperature  
Mean Temperature 78 °F -  
Max Temperature 86 °F 79 °F 100 °F (1966)
Min Temperature 69 °F 59 °F 47 °F (1927)
Cooling Degree Days 12    
Growing Degree Days 28 (Base 50)    
Moisture  
Dew Point 70 °F    
Average Humidity 83    
Maximum Humidity 100    
Minimum Humidity 51    
Precipitation  
Precipitation 0.00 in - - ()
Sea Level Pressure  
Sea Level Pressure 30.22 in    
Wind  
Wind Speed 3 mph (SW)    
Max Wind Speed 12 mph    
Max Gust Speed -    
Visibility 10 miles    
Events Rain    
Averages and records for this station are not official NWS values.
T = Trace of Precipitation, MM = Missing Value Source: NWS Daily Summary

Daily Weather History Graph

Daily Weather History Graph

Search for Another Location

Airport or City:

Trip Planner

Search our weather history database for the weather conditions in past years. The results will help you decide how hot, cold, wet, or windy it might be!

Date:

Astronomy

Jul. 04, 2013 Rise Set
Actual Time 5:45 AM EDT 8:46 PM EDT
Civil Twilight 5:12 AM EDT 9:19 PM EDT
Nautical Twilight 4:29 AM EDT 10:01 PM EDT
Astronomical Twilight 3:40 AM EDT 10:50 PM EDT
Moon 3:01 AM EDT (7/4) 5:48 PM EDT (7/4)
Length of Visible Light 16h 07m
Length of Day
15h 01m
Waning Crescent, 11% of the Moon is Illuminated
Jul 4
Waning Crescent
Jul 8
New
Jul 15
First Quarter
Jul 22
Full
Jul 29
Last Quarter

Hourly Weather History & Observations

Time (EDT) Temp. Heat Index Dew Point Humidity Pressure Visibility Wind Dir Wind Speed Gust Speed Precip Events Conditions
12:15 AM 73.4 °F - 70.9 °F 92% 30.23 in 10.0 mi Calm Calm - N/A   Mostly Cloudy
12:35 AM 73.4 °F - 70.7 °F 91% 30.23 in 10.0 mi Calm Calm - N/A   Mostly Cloudy
12:55 AM 72.0 °F - 70.7 °F 96% 30.23 in 10.0 mi Calm Calm - N/A   Scattered Clouds
1:15 AM 72.5 °F - 70.3 °F 93% 30.23 in 10.0 mi Calm Calm - N/A   Clear
1:35 AM 72.7 °F - 70.5 °F 93% 30.22 in 10.0 mi Calm Calm - N/A   Clear
1:55 AM 71.8 °F - 70.2 °F 95% 30.22 in 10.0 mi Calm Calm - N/A   Clear
2:15 AM 71.8 °F - 70.3 °F 95% 30.22 in 10.0 mi Calm Calm - N/A   Clear
2:35 AM 71.1 °F - 69.6 °F 95% 30.21 in 10.0 mi Calm Calm - N/A   Clear
2:55 AM 70.9 °F - 69.4 °F 95% 30.21 in 10.0 mi Calm Calm - N/A   Scattered Clouds
3:15 AM 71.6 °F - 69.8 °F 94% 30.21 in 10.0 mi Calm Calm - N/A   Mostly Cloudy
3:35 AM 72.5 °F - 70.2 °F 92% 30.21 in 10.0 mi Calm Calm - N/A   Scattered Clouds
3:55 AM 71.6 °F - 70.2 °F 95% 30.21 in 10.0 mi Calm Calm - N/A   Light Drizzle
4:15 AM 72.1 °F - 70.2 °F 93% 30.22 in 10.0 mi SW 3.5 mph - N/A Rain Light Rain
4:35 AM 71.8 °F - 70.2 °F 95% 30.22 in 10.0 mi SW 3.5 mph - N/A   Mostly Cloudy
4:55 AM 71.6 °F - 70.2 °F 95% 30.22 in 10.0 mi SW 3.5 mph - N/A   Scattered Clouds
5:15 AM 71.6 °F - 70.0 °F 95% 30.22 in 10.0 mi SW 3.5 mph - N/A   Scattered Clouds
5:35 AM 71.1 °F - 70.0 °F 96% 30.23 in 10.0 mi WNW 3.5 mph - N/A   Scattered Clouds
5:53 AM 69.8 °F - 69.8 °F 100% 30.23 in 10.0 mi WSW 3.5 mph - N/A   Mostly Cloudy
6:53 AM 73.4 °F - 71.6 °F 94% 30.23 in 10.0 mi Calm Calm - N/A   Scattered Clouds
7:53 AM 73.4 °F - 69.8 °F 88% 30.25 in 10.0 mi SSW 5.8 mph - N/A   Mostly Cloudy
8:53 AM 75.2 °F - 69.8 °F 83% 30.25 in 10.0 mi SSW 5.8 mph - N/A   Mostly Cloudy
9:53 AM 77.0 °F - 69.8 °F 78% 30.25 in 10.0 mi SW 11.5 mph - N/A   Mostly Cloudy
10:53 AM 78.8 °F - 68.0 °F 69% 30.25 in 10.0 mi SW 11.5 mph - N/A   Mostly Cloudy
11:53 AM 82.4 °F 86.3 °F 69.8 °F 66% 30.24 in 10.0 mi SSW 5.8 mph - N/A   Scattered Clouds
12:53 PM 82.4 °F 85.4 °F 68.0 °F 62% 30.23 in 10.0 mi SSW 11.5 mph - N/A   Scattered Clouds
2:53 PM 84.2 °F 87.3 °F 68.0 °F 58% 30.22 in 10.0 mi SSW 11.5 mph - N/A   Scattered Clouds
3:53 PM 86.0 °F 88.2 °F 66.2 °F 51% 30.20 in 10.0 mi SSW 11.5 mph - N/A   Scattered Clouds
4:53 PM 86.0 °F 88.2 °F 66.2 °F 51% 30.18 in 10.0 mi SSW 10.4 mph - N/A   Mostly Cloudy
5:53 PM 84.2 °F 87.3 °F 68.0 °F 58% 30.18 in 10.0 mi South 6.9 mph - N/A   Scattered Clouds
6:53 PM 82.4 °F 85.4 °F 68.0 °F 62% 30.19 in 10.0 mi South 4.6 mph - N/A   Scattered Clouds
7:53 PM 80.6 °F 83.9 °F 69.8 °F 70% 30.19 in 10.0 mi South 5.8 mph - N/A   Scattered Clouds
8:53 PM 78.8 °F - 69.8 °F 74% 30.20 in 10.0 mi South 4.6 mph - N/A   Clear
9:35 PM 77.0 °F - 69.8 °F 78% 30.20 in 10.0 mi SW 5.8 mph - N/A   Clear
9:55 PM 76.1 °F - 69.8 °F 81% 30.21 in 7.0 mi SW 5.8 mph - N/A   Clear
10:15 PM 76.1 °F - 69.8 °F 81% 30.22 in 10.0 mi SW 5.8 mph - N/A   Clear
10:35 PM 76.1 °F - 69.8 °F 81% 30.21 in 10.0 mi SSW 4.6 mph - N/A   Clear
10:55 PM 75.9 °F - 69.8 °F 81% 30.21 in 10.0 mi SSW 4.6 mph - N/A   Clear
11:15 PM 75.4 °F - 69.8 °F 83% 30.21 in 10.0 mi SSW 3.5 mph - N/A   Clear
11:35 PM 75.2 °F - 69.4 °F 82% 30.21 in 7.0 mi SW 3.5 mph - N/A   Clear
11:55 PM 75.9 °F - 69.4 °F 80% 30.21 in 10.0 mi SSW 8.1 mph - N/A   Clear